Monroe, MI

2:34 AM EDT on September 25, 2017 (GMT -0400)
Custer

Weather History for KTTF - July, 2013

Change the Weather History Date:

Thursday, July 18, 2013

  Actual Average Record
Temperature  
Mean Temperature 82 °F -  
Max Temperature 93 °F 87 °F 98 °F (1942)
Min Temperature 71 °F 65 °F 19 °F (1997)
Cooling Degree Days 17    
Growing Degree Days 32 (Base 50)    
Moisture  
Dew Point 74 °F    
Average Humidity 74    
Maximum Humidity 100    
Minimum Humidity 49    
Precipitation  
Precipitation 0.00 in - - ()
Sea Level Pressure  
Sea Level Pressure 30.08 in    
Wind  
Wind Speed 4 mph (WSW)    
Max Wind Speed 13 mph    
Max Gust Speed 17 mph    
Visibility 9 miles    
Events Rain    
Averages and records for this station are not official NWS values.
T = Trace of Precipitation, MM = Missing Value Source: NWS Daily Summary

Daily Weather History Graph

Daily Weather History Graph

Search for Another Location

Airport or City:

Trip Planner

Search our weather history database for the weather conditions in past years. The results will help you decide how hot, cold, wet, or windy it might be!

Date:

Astronomy

Jul. 18, 2013 Rise Set
Actual Time 6:14 AM EDT 9:05 PM EDT
Civil Twilight 5:41 AM EDT 9:37 PM EDT
Nautical Twilight 4:59 AM EDT 10:19 PM EDT
Astronomical Twilight 4:11 AM EDT 11:07 PM EDT
Moon 5:00 PM EDT (7/18) 2:04 AM EDT (7/18)
Length of Visible Light 15h 56m
Length of Day
14h 50m
Waxing Gibbous, 77% of the Moon is Illuminated
Jul 18
Waxing Gibbous
Jul 22
Full
Jul 29
Last Quarter
Aug 6
New
Aug 14
First Quarter

Hourly Weather History & Observations

Time (EDT) Temp. Heat Index Dew Point Humidity Pressure Visibility Wind Dir Wind Speed Gust Speed Precip Events Conditions
12:16 AM 78.8 °F - 75.2 °F 89% 30.17 in 10.0 mi West 3.5 mph - N/A   Clear
12:36 AM 78.8 °F - 73.4 °F 83% 30.17 in 10.0 mi West 3.5 mph - N/A   Clear
12:51 AM 78.8 °F - 73.4 °F 83% 30.17 in 10.0 mi West 3.5 mph - N/A   Clear
1:11 AM 77.0 °F - 73.4 °F 89% 30.16 in 10.0 mi Calm Calm - N/A   Clear
1:31 AM 77.0 °F - 73.4 °F 89% 30.15 in 10.0 mi West 3.5 mph - N/A   Clear
1:52 AM 77.0 °F - 73.4 °F 89% 30.15 in 10.0 mi West 3.5 mph - N/A   Clear
2:12 AM 77.0 °F - 73.4 °F 89% 30.15 in 10.0 mi Calm Calm - N/A   Clear
2:32 AM 77.0 °F - 73.4 °F 89% 30.15 in 10.0 mi Calm Calm - N/A   Clear
2:52 AM 75.2 °F - 73.4 °F 94% 30.15 in 7.0 mi Calm Calm - N/A   Clear
3:12 AM 75.2 °F - 73.4 °F 94% 30.15 in 7.0 mi West 3.5 mph - N/A   Clear
3:32 AM 75.2 °F - 73.4 °F 94% 30.15 in 7.0 mi West 3.5 mph - N/A   Clear
3:52 AM 75.2 °F - 73.4 °F 94% 30.15 in 7.0 mi West 3.5 mph - N/A   Clear
4:12 AM 75.2 °F - 73.4 °F 94% 30.15 in 7.0 mi West 4.6 mph - N/A   Clear
4:32 AM 75.2 °F - 73.4 °F 94% 30.14 in 7.0 mi West 4.6 mph - N/A   Clear
4:53 AM 75.2 °F - 71.6 °F 89% 30.14 in 7.0 mi WSW 3.5 mph - N/A   Clear
5:13 AM 73.4 °F - 71.6 °F 94% 30.14 in 7.0 mi Calm Calm - N/A   Clear
5:33 AM 73.4 °F - 71.6 °F 94% 30.14 in 5.0 mi Calm Calm - N/A   Clear
5:53 AM 73.4 °F - 73.4 °F 100% 30.14 in 7.0 mi Calm Calm - N/A   Clear
6:13 AM 71.6 °F - 71.6 °F 100% 30.14 in 1.0 mi Calm Calm - N/A   Mist
6:33 AM 71.6 °F - 71.6 °F 100% 30.14 in 3.0 mi Calm Calm - N/A   Clear
6:53 AM 73.4 °F - 73.4 °F 100% 30.14 in 4.0 mi Calm Calm - N/A   Clear
7:13 AM 75.2 °F - 73.4 °F 94% 30.14 in 7.0 mi Calm Calm - N/A   Clear
7:33 AM 77.0 °F - 73.4 °F 89% 30.15 in 7.0 mi SW 3.5 mph - N/A   Clear
7:53 AM 78.8 °F - 73.4 °F 83% 30.15 in 7.0 mi WSW 3.5 mph - N/A   Clear
8:14 AM 78.8 °F - 73.4 °F 83% 30.14 in 10.0 mi Calm Calm - N/A   Clear
8:34 AM 80.6 °F 85.4 °F 73.4 °F 79% 30.14 in 10.0 mi WSW 3.5 mph - N/A   Clear
8:54 AM 82.4 °F 89.5 °F 75.2 °F 79% 30.14 in 10.0 mi WNW 3.5 mph - N/A   Clear
9:14 AM 82.4 °F 88.2 °F 73.4 °F 74% 30.14 in 10.0 mi WNW 3.5 mph - N/A   Clear
9:34 AM 84.2 °F 90.9 °F 73.4 °F 70% 30.14 in 10.0 mi West 4.6 mph - N/A   Clear
9:54 AM 84.2 °F 92.3 °F 75.2 °F 74% 30.13 in 10.0 mi West 4.6 mph - N/A   Clear
10:14 AM 87.8 °F 97.6 °F 75.2 °F 66% 30.13 in 10.0 mi Calm Calm - N/A   Clear
10:34 AM 87.8 °F 97.6 °F 75.2 °F 66% 30.13 in 10.0 mi WSW 4.6 mph - N/A   Clear
10:54 AM 87.8 °F 97.6 °F 75.2 °F 66% 30.13 in 10.0 mi WSW 5.8 mph - N/A   Clear
11:14 AM 89.6 °F 99.8 °F 75.2 °F 62% 30.12 in 10.0 mi SW 3.5 mph - N/A   Clear
11:35 AM 91.4 °F 105.1 °F 77.0 °F 63% 30.12 in 10.0 mi SW 4.6 mph - N/A   Scattered Clouds
11:55 AM 91.4 °F 102.5 °F 75.2 °F 59% 30.12 in 10.0 mi West 6.9 mph - N/A   Scattered Clouds
12:15 PM 89.6 °F 99.8 °F 75.2 °F 62% 30.12 in 10.0 mi WNW 4.6 mph - N/A   Mostly Cloudy
12:35 PM 91.4 °F 102.5 °F 75.2 °F 59% 30.11 in 10.0 mi WSW 5.8 mph - N/A   Scattered Clouds
12:55 PM 91.4 °F 102.5 °F 75.2 °F 59% 30.10 in 10.0 mi West 6.9 mph - N/A   Scattered Clouds
1:15 PM 87.8 °F 99.7 °F 77.0 °F 70% 30.10 in 10.0 mi North 4.6 mph - N/A Rain Light Rain
1:35 PM 87.8 °F 102.5 °F 78.8 °F 75% 30.10 in 10.0 mi Calm Calm - N/A   Mostly Cloudy
1:55 PM 89.6 °F 102.2 °F 77.0 °F 66% 30.09 in 10.0 mi Calm Calm - N/A   Mostly Cloudy
2:15 PM 91.4 °F 102.5 °F 75.2 °F 59% 30.09 in 10.0 mi WSW 6.9 mph - N/A   Mostly Cloudy
2:36 PM 91.4 °F 102.5 °F 75.2 °F 59% 30.08 in 10.0 mi SW 6.9 mph - N/A   Scattered Clouds
2:56 PM 93.2 °F 105.0 °F 75.2 °F 56% 30.08 in 10.0 mi West 6.9 mph - N/A   Scattered Clouds
3:16 PM 91.4 °F 100.1 °F 73.4 °F 55% 30.07 in 10.0 mi SW 9.2 mph - N/A   Mostly Cloudy
3:36 PM 93.2 °F 102.4 °F 73.4 °F 52% 30.06 in 10.0 mi WSW 12.7 mph 17.3 mph N/A   Scattered Clouds
3:56 PM 93.2 °F 102.4 °F 73.4 °F 52% 30.05 in 10.0 mi WSW 10.4 mph - N/A   Scattered Clouds
4:16 PM 93.2 °F 100.5 °F 71.6 °F 49% 30.04 in 10.0 mi SW 10.4 mph - N/A   Scattered Clouds
4:31 PM 93.2 °F 102.4 °F 73.4 °F 52% 30.03 in 10.0 mi SW 11.5 mph - N/A   Scattered Clouds
4:51 PM 93.2 °F 102.4 °F 73.4 °F 52% 30.02 in 10.0 mi WSW 11.5 mph - N/A   Clear
5:11 PM 93.2 °F 105.0 °F 75.2 °F 56% 30.02 in 10.0 mi WSW 12.7 mph 16.1 mph N/A   Scattered Clouds
5:31 PM 93.2 °F 102.4 °F 73.4 °F 52% 30.00 in 10.0 mi WSW 10.4 mph - N/A   Scattered Clouds
5:52 PM 91.4 °F 102.5 °F 75.2 °F 59% 30.00 in 10.0 mi WSW 10.4 mph 17.3 mph N/A   Scattered Clouds
6:12 PM 91.4 °F 100.1 °F 73.4 °F 55% 30.01 in 10.0 mi WNW 8.1 mph - N/A   Mostly Cloudy
6:32 PM 91.4 °F 102.5 °F 75.2 °F 59% 30.00 in 10.0 mi WNW 10.4 mph - N/A   Scattered Clouds
6:52 PM 91.4 °F 100.1 °F 73.4 °F 55% 30.00 in 10.0 mi WNW 9.2 mph - N/A   Clear
7:14 PM 91.4 °F 100.1 °F 73.4 °F 55% 30.00 in 10.0 mi WNW 4.6 mph - N/A   Clear
7:34 PM 89.6 °F 99.8 °F 75.2 °F 62% 30.00 in 10.0 mi West 4.6 mph - N/A   Clear
7:55 PM 89.6 °F 99.8 °F 75.2 °F 62% 29.99 in 10.0 mi Calm Calm - N/A   Clear
8:15 PM 89.6 °F 99.8 °F 75.2 °F 62% 29.99 in 10.0 mi Calm Calm - N/A   Clear
8:35 PM 87.8 °F 97.6 °F 75.2 °F 66% 29.98 in 10.0 mi SW 3.5 mph - N/A   Clear
8:55 PM 86.0 °F 95.1 °F 75.2 °F 70% 29.98 in 10.0 mi SSW 3.5 mph - N/A   Clear
9:15 PM 84.2 °F 92.3 °F 75.2 °F 74% 29.98 in 10.0 mi SSW 4.6 mph - N/A   Clear
9:35 PM 84.2 °F 92.3 °F 75.2 °F 74% 29.98 in 10.0 mi Calm Calm - N/A   Clear
9:55 PM 84.2 °F 92.3 °F 75.2 °F 74% 29.98 in 10.0 mi SSW 3.5 mph - N/A   Clear
10:15 PM 82.4 °F 89.5 °F 75.2 °F 79% 29.98 in 10.0 mi Calm Calm - N/A   Clear
10:35 PM 82.4 °F 89.5 °F 75.2 °F 79% 29.99 in 10.0 mi SSW 3.5 mph - N/A   Clear
10:56 PM 82.4 °F 89.5 °F 75.2 °F 79% 29.99 in 10.0 mi SSW 5.8 mph - N/A   Clear
11:16 PM 84.2 °F 92.3 °F 75.2 °F 74% 29.98 in 10.0 mi SW 6.9 mph - N/A   Clear
11:36 PM 82.4 °F 89.5 °F 75.2 °F 79% 29.98 in 10.0 mi SW 8.1 mph - N/A   Clear
11:56 PM 82.4 °F 89.5 °F 75.2 °F 79% 29.99 in 10.0 mi WSW 6.9 mph - N/A   Clear